Port Lavaca, TX

11:03 AM CST on February 20, 2017 (GMT -0600)
Port Lavaca

Weather History for KPKV - February, 2014

Change the Weather History Date:

Sunday, February 23, 2014

  Actual Average (KVCT) Record (KVCT)
Temperature  
Mean Temperature 72 °F -  
Max Temperature 81 °F 69 °F 89 °F (1920)
Min Temperature 62 °F 46 °F 28 °F (2009)
Cooling Degree Days 6    
Growing Degree Days 22 (Base 50)    
Moisture  
Dew Point 65 °F    
Average Humidity 89    
Maximum Humidity 99    
Minimum Humidity 63    
Precipitation  
Precipitation 0.02 in - - ()
Sea Level Pressure  
Sea Level Pressure 29.94 in    
Wind  
Wind Speed 4 mph (SSE)    
Max Wind Speed 13 mph    
Max Gust Speed 16 mph    
Visibility 5 miles    
Events Fog , Rain    
Averages and records for this station are not official NWS values.
T = Trace of Precipitation, MM = Missing Value Source: NWS Daily Summary

Daily Weather History Graph

Daily Weather History Graph

Search for Another Location

Airport or City:

Trip Planner

Search our weather history database for the weather conditions in past years. The results will help you decide how hot, cold, wet, or windy it might be!

Date:

Astronomy

Feb. 23, 2014 Rise Set
Actual Time 6:57 AM CST 6:22 PM CST
Civil Twilight 6:33 AM CST 6:46 PM CST
Nautical Twilight 6:06 AM CST 7:14 PM CST
Astronomical Twilight 5:39 AM CST 7:41 PM CST
Moon 1:43 AM CST (2/23) 12:40 PM CST (2/23)
Length of Visible Light 12h 12m
Length of Day
11h 25m
Last Quarter, 38% of the Moon is Illuminated
Feb 23
Last Quarter
Mar 1
New
Mar 8
First Quarter
Mar 16
Full
Mar 23
Last Quarter

Hourly Weather History & Observations

Time (CST) Temp. Heat Index Dew Point Humidity Pressure Visibility Wind Dir Wind Speed Gust Speed Precip Events Conditions
12:15 AM 62.6 °F - 61.7 °F 97% 29.92 in 0.8 mi ESE 5.8 mph - N/A   Overcast
12:35 AM 62.6 °F - 61.9 °F 97% 29.91 in 0.8 mi ESE 4.6 mph - N/A   Overcast
12:55 AM 62.6 °F - 61.9 °F 97% 29.91 in 0.5 mi East 4.6 mph - N/A Fog Fog
1:15 AM 62.6 °F - 61.9 °F 97% 29.92 in 0.5 mi East 4.6 mph - N/A Fog Fog
1:35 AM 62.8 °F - 62.1 °F 97% 29.91 in 0.5 mi East 3.5 mph - N/A Fog Fog
1:55 AM 62.8 °F - 62.1 °F 97% 29.90 in 0.5 mi East 4.6 mph - N/A Fog Fog
2:15 AM 63.0 °F - 62.2 °F 97% 29.90 in 0.5 mi Calm Calm - N/A Rain Light Rain
2:35 AM 63.0 °F - 62.6 °F 99% 29.90 in 0.2 mi Calm Calm - N/A Fog Fog
2:55 AM 63.1 °F - 62.6 °F 98% 29.89 in 0.2 mi East 3.5 mph - N/A Fog Fog
3:15 AM 63.0 °F - 62.6 °F 99% 29.89 in 0.5 mi Calm Calm - 0.01 in Rain Light Rain
3:40 AM 63.0 °F - 62.6 °F 99% 29.89 in 0.2 mi Calm Calm - 0.01 in Fog Fog
3:55 AM 63.0 °F - 62.6 °F 99% 29.89 in 0.2 mi Calm Calm - 0.01 in Fog Fog
4:15 AM 63.0 °F - 62.4 °F 98% 29.89 in 0.2 mi Calm Calm - N/A Fog Fog
4:35 AM 63.0 °F - 62.6 °F 99% 29.89 in 0.2 mi Calm Calm - N/A Fog Fog
4:55 AM 63.0 °F - 62.6 °F 99% 29.89 in 0.2 mi Calm Calm - N/A Fog Fog
5:15 AM 63.0 °F - 62.6 °F 99% 29.90 in 0.2 mi Calm Calm - N/A Fog Fog
5:35 AM 63.0 °F - 62.6 °F 99% 29.90 in 0.2 mi Calm Calm - N/A Fog Fog
5:55 AM 63.0 °F - 62.6 °F 99% 29.91 in 0.5 mi Calm Calm - N/A Fog Fog
6:15 AM 62.8 °F - 62.4 °F 99% 29.91 in 0.2 mi Calm Calm - N/A Fog Fog
6:35 AM 63.0 °F - 62.6 °F 99% 29.92 in 0.2 mi Calm Calm - N/A Rain Rain
6:55 AM 63.0 °F - 62.6 °F 99% 29.93 in 0.5 mi Calm Calm - N/A Fog Fog
7:15 AM 63.0 °F - 62.6 °F 99% 29.93 in 0.5 mi Calm Calm - N/A Fog Fog
7:35 AM 63.0 °F - 62.6 °F 99% 29.94 in 0.2 mi Calm Calm - N/A Fog Fog
7:55 AM 63.5 °F - 63.0 °F 98% 29.94 in 0.2 mi East 3.5 mph - N/A Fog Fog
8:20 AM 64.0 °F - 63.5 °F 98% 29.95 in 0.5 mi ESE 3.5 mph - N/A Fog Fog
8:35 AM 64.8 °F - 64.2 °F 98% 29.95 in 0.2 mi Calm Calm - N/A Fog Fog
8:55 AM 66.0 °F - 65.5 °F 98% 29.97 in 0.2 mi Calm Calm - N/A Fog Fog
9:15 AM 66.0 °F - 65.5 °F 98% 29.97 in 0.2 mi Calm Calm - N/A Fog Fog
9:35 AM 66.2 °F - 65.7 °F 98% 29.98 in 0.5 mi Calm Calm - N/A Fog Fog
9:55 AM 66.9 °F - 66.2 °F 98% 29.98 in 1.0 mi Calm Calm - N/A   Overcast
10:15 AM 67.6 °F - 67.1 °F 98% 29.98 in 5.0 mi Calm Calm - N/A   Overcast
10:35 AM 69.1 °F - 68.5 °F 98% 29.98 in 10.0 mi Calm Calm - N/A   Overcast
10:55 AM 69.8 °F - 69.3 °F 98% 29.98 in 10.0 mi SSE 3.5 mph - N/A   Overcast
11:15 AM 69.8 °F - 68.9 °F 97% 29.98 in 10.0 mi SSW 5.8 mph - 0.01 in   Overcast
11:35 AM 70.0 °F - 69.1 °F 97% 29.98 in 10.0 mi South 6.9 mph - 0.01 in   Overcast
11:55 AM 73.4 °F - 68.9 °F 86% 29.97 in 10.0 mi SSW 5.8 mph - 0.01 in   Overcast
12:15 PM 74.3 °F - 68.9 °F 83% 29.96 in 10.0 mi SSW 6.9 mph - N/A   Overcast
12:35 PM 75.4 °F - 68.7 °F 80% 29.96 in 10.0 mi WSW 4.6 mph - N/A   Overcast
12:55 PM 75.7 °F - 68.2 °F 77% 29.95 in 10.0 mi SSW 5.8 mph - N/A   Overcast
1:15 PM 77.0 °F - 68.0 °F 74% 29.94 in 10.0 mi SSW 5.8 mph - N/A   Overcast
1:35 PM 77.7 °F - 68.0 °F 72% 29.93 in 10.0 mi SSW 4.6 mph - N/A   Mostly Cloudy
1:55 PM 80.1 °F 82.3 °F 66.9 °F 64% 29.93 in 10.0 mi SSW 9.2 mph - N/A   Mostly Cloudy
2:15 PM 81.3 °F 84.0 °F 67.6 °F 63% 29.91 in 10.0 mi SSW 8.1 mph - N/A   Mostly Cloudy
2:35 PM 79.9 °F - 66.9 °F 64% 29.91 in 10.0 mi SW 6.9 mph - N/A   Scattered Clouds
2:55 PM 80.4 °F 82.8 °F 67.1 °F 64% 29.90 in 10.0 mi South 10.4 mph - N/A   Mostly Cloudy
3:15 PM 79.7 °F - 66.7 °F 64% 29.90 in 10.0 mi South 8.1 mph - N/A   Mostly Cloudy
3:35 PM 79.2 °F - 67.1 °F 66% 29.90 in 10.0 mi SSW 8.1 mph - N/A   Mostly Cloudy
3:55 PM 80.2 °F 82.6 °F 66.9 °F 64% 29.90 in 10.0 mi SSW 9.2 mph 16.1 mph N/A   Scattered Clouds
4:15 PM 78.6 °F - 66.6 °F 66% 29.90 in 10.0 mi South 9.2 mph 16.1 mph N/A   Scattered Clouds
4:35 PM 79.0 °F - 66.6 °F 66% 29.90 in 10.0 mi South 9.2 mph - N/A   Clear
4:55 PM 77.4 °F - 66.0 °F 68% 29.90 in 10.0 mi South 10.4 mph - N/A   Clear
5:15 PM 76.8 °F - 66.0 °F 69% 29.90 in 10.0 mi South 11.5 mph - N/A   Clear
5:35 PM 76.1 °F - 66.2 °F 71% 29.91 in 10.0 mi South 12.7 mph - N/A   Clear
5:55 PM 74.7 °F - 66.2 °F 75% 29.92 in 10.0 mi South 10.4 mph - N/A   Clear
6:15 PM 73.2 °F - 66.2 °F 79% 29.92 in 10.0 mi South 8.1 mph - N/A   Clear
6:35 PM 71.8 °F - 65.7 °F 81% 29.93 in 10.0 mi South 6.9 mph - N/A   Clear
6:55 PM 70.3 °F - 65.3 °F 84% 29.93 in 10.0 mi South 4.6 mph - N/A   Clear
7:15 PM 68.9 °F - 64.4 °F 86% 29.93 in 10.0 mi SSE 4.6 mph - N/A   Clear
7:35 PM 68.4 °F - 64.6 °F 88% 29.94 in 10.0 mi South 5.8 mph - N/A   Clear
7:55 PM 68.0 °F - 64.4 °F 88% 29.95 in 7.0 mi SSE 4.6 mph - N/A   Clear
8:15 PM 66.2 °F - 63.5 °F 91% 29.96 in 7.0 mi SE 4.6 mph - N/A   Clear
8:35 PM 66.2 °F - 63.3 °F 90% 29.96 in 7.0 mi SSE 3.5 mph - N/A   Clear
8:55 PM 65.8 °F - 64.2 °F 94% 29.97 in 5.0 mi SE 3.5 mph - N/A   Clear
9:15 PM 64.4 °F - 63.0 °F 95% 29.98 in 4.0 mi SE 3.5 mph - N/A   Clear
9:35 PM 63.9 °F - 62.6 °F 96% 29.98 in 4.0 mi Calm Calm - N/A   Scattered Clouds
9:55 PM 63.0 °F - 61.0 °F 93% 29.98 in 7.0 mi Calm Calm - N/A   Overcast
10:15 PM 64.4 °F - 62.4 °F 93% 29.98 in 7.0 mi Calm Calm - N/A   Overcast
10:35 PM 64.4 °F - 62.6 °F 94% 29.99 in 10.0 mi Calm Calm - N/A   Mostly Cloudy
10:55 PM 64.4 °F - 62.2 °F 93% 29.99 in 10.0 mi Calm Calm - N/A   Mostly Cloudy
11:15 PM 63.9 °F - 61.7 °F 93% 29.99 in 10.0 mi NE 3.5 mph - N/A   Mostly Cloudy
11:35 PM 63.3 °F - 61.3 °F 93% 30.00 in 10.0 mi Calm Calm - N/A   Mostly Cloudy
11:55 PM 64.0 °F - 62.2 °F 94% 30.00 in 5.0 mi NE 3.5 mph - N/A   Overcast